sat.trackr.live / text

‹ back to catalog

KUIPER-00210

NORAD 67146 · 2025-301P

PAYLOAD ACTIVE UNKNOWN

§ Identity

Operator
Country
US
Launch date
2025-12-16
Launch site
AFETR
Launch vehicle
Mass (kg)
RCS (m²)

External: N2YO · Heavens-Above · Gunter

§ Orbital elements

Epoch: 2026-05-25T03:53:36.856032Z

Period
97.30 min
Inclination
51.8993°
Eccentricity
0.0000837
Mean motion
14.79942268 rev/d
Perigee alt
628.9 km
Apogee alt
630.1 km
Semi-major
7,007.6 km
B*
4.1608e-4
RAAN
94.9395°
Arg perigee
75.3536°
Mean anomaly
284.7519°
Rev number
2,512

§ Raw data

KUIPER-002101 67146U 25301P   26145.16223213  .00002953  00000+0  41608-3 0  99932 67146  51.8993  94.9395 0000837  75.3536 284.7519 14.79942268 25125

JSON: /api/v1/satellites/67146 · /tle

For live sub-satellite position, see the globe view (requires WebGL).

§ Visibility from observer

Set your observer location to see the next 7 days of passes ≥ 10°. The values pass through the URL so the page stays shareable.

No JS? Fill the form by hand. The geolocation button needs JavaScript.